Regional Weather Roundup
Issued by NWS

Home | Current Version | Previous Version | Text Only | Print | Product List | Glossary On
Versions: 1 2 3 4 5 6 7 8 9 10 11 12 13 14 15 16 17 18 19 20 21 22 23 24 25 26 27 28 29 30 31 32 33 34 35 36 37 38 39 40 41 42 43 44 45 46 47 48 49 50
000
ASUS46 KSTO 230804
RWRCA

NORTHERN AND CENTRAL CA REGIONAL WEATHER ROUNDUP
NATIONAL WEATHER SERVICE SACRAMENTO CA
100 AM PDT WED APR 23 2014

NOTE: FAIR INDICATES FEW OR NO CLOUDS BELOW 12,000 FEET WITH NO
SIGNIFICANT WEATHER AND/OR OBSTRUCTIONS TO VISIBILITY.

CAZ001-003-230900-
NORTHWEST AREA

CITY           SKY/WX    TMP DP  RH WIND       PRES   REMARKS
CRESCENT CITY  LGT RAIN  47  43  86 SE10      30.14R
UKIAH          CLEAR     43  36  76 CALM      30.14F
$$

CAZ006-505>513-230900-
BAY AREA

CITY           SKY/WX    TMP DP  RH WIND       PRES   REMARKS
SANTA ROSA     PTCLDY    49  36  61 W9        30.10F
SAN RAFAEL     N/A       52  MM  MM MISG
NAPA           MOCLDY    47  39  74 NW7       30.10F
CONCORD        PTCLDY    50  37  61 SW7       30.11F
OAKLAND CITY   N/A       54  MM  MM MISG
OAKLAND        PTCLDY    54  35  48 NW10      30.12F
SAN FRAN CITY  N/A       51  MM  61 MISG
SAN FRAN ARPT  PTCLDY    53  44  71 W14       30.13F
LIVERMORE      CLEAR     49  39  68 SW6       30.11S
HAYWARD        PTCLDY    50  39  66 NW7       30.12F
REDWOOD CITY   N/A       MM  MM  MM MISG
MOFFETT ARPT   CLEAR     52  40  63 VRB7      30.14F
SAN JOSE ARPT  CLEAR     51  40  65 W10       30.13F
$$
CAZ034-037-514>518-230900-
CENTRAL COAST

CITY           SKY/WX    TMP DP  RH WIND       PRES   REMARKS
WATSONVILLE    CLEAR     45  35  68 CALM      30.14R
SALINAS        CLEAR     50  43  77 SW8       30.14R
MONTEREY       CLEAR     52  43  71 W8        30.15S
SAN LUIS OBISP CLEAR     55  36  48 N9G16     30.06R
SANTA MARIA    CLEAR     50  44  80 NW7       30.06R
$$
CAZ015-016-230900-
NORTHERN SACRAMENTO VALLEY

CITY           SKY/WX    TMP DP  RH WIND       PRES   REMARKS
REDDING        MOCLDY    53  30  41 W5        30.06S
RED BLUFF      MOCLDY    55  27  34 NW13      30.07S
OROVILLE       PTCLDY    54  31  41 CALM      30.08R
$$
CAZ016>018-230900-
SOUTHERN SACRAMENTO VALLEY

CITY           SKY/WX    TMP DP  RH WIND       PRES   REMARKS
AUBURN         CLOUDY    48  39  71 SE6       30.07S
BEALE AFB      CLOUDY    52  42  69 SE8       30.06R
LINCOLN        FAIR      50  41  71 SE8       30.06S
MARYSVILLE     CLOUDY    53  37  54 NE5       30.06S
SAC INTL ARPT  CLOUDY    52  40  63 CALM      30.07S
MATHER AIRPORT NOT AVBL
DOWNTOWN SAC   N/A       51  MM  MM MISG
SAC EXEC ARPT  CLOUDY    49  42  77 CALM      30.08S
VACAVILLE      MOCLDY    50  37  61 E3        30.08S
TRAVIS AFB     MOCLDY    48  42  79 SW10      30.06F
$$
CAZ019>021-230900-
SAN JOAQUIN VALLEY

CITY           SKY/WX    TMP DP  RH WIND       PRES   REMARKS
STOCKTON       CLEAR     48  40  73 VRB3      30.08F
MODESTO        CLEAR     52  37  56 NW10      30.08S
MERCED         CLEAR     53  39  59 N15       30.06S
LEMOORE        CLEAR    N/A N/A N/A NW13      30.06R
FRESNO         CLEAR     55  38  52 W18       30.04R
HANFORD        CLEAR     54  34  46 NW12      30.06R
PORTERVILLE    CLEAR     50  36  57 W9        30.04S
BAKERSFIELD    CLEAR     52  34  50 NW3       30.05R
$$
CAZ011-012-071-230900-
NORTHERN MOUNTAINS

CITY           SKY/WX    TMP DP  RH WIND       PRES   REMARKS
YREKA          CLOUDY    39  34  82 CALM      30.08R
MOUNT SHASTA   CLOUDY    35  25  66 CALM      30.04S
ALTURAS        CLOUDY    34  32  92 CALM      30.04F
$$
CAZ011-012-071-230900-
SIERRA NEVADA MTNS

CITY           SKY/WX    TMP DP  RH WIND       PRES   REMARKS
BLUE CANYON    CLOUDY    36  28  73 SE3       30.07S
TRUCKEE        CLOUDY    30  27  86 CALM      30.05F
TAHOE VLY ARPT CLOUDY    32  26  78 CALM      30.03F
MAMMOTH LAKES  FAIR      32  16  51 W7        30.00S WCI  26
$$




USA.gov is the U.S. government's official web portal to all federal, state and local government web resources and services.